Tracking 31027 objects as of 19-Jul-2025
HD Live streaming from Space Station
objects crossing your sky now

FENGYUN 1C DEB

Track FENGYUN 1C DEB now!
10-day predictions


NORAD ID: 38726
Int'l Code: 1999-025ETT
Perigee: 607.7 km
Apogee: 650.8 km
Inclination: 99.1 °
Period: 97.1 minutes
Semi major axis: 7000 km
RCS: 0.003 m2 (small)
Launch date: May 10, 1999
Source: People's Republic of China (PRC)
Launch site: Taiyaun Space Center, China (TSC)

Note: This is SATELLITE DEBRIS
Your satellite tracking list
Your tracking list is empty




NASA's NSSDC Master Catalog

Two Line Element Set (TLE):
1 38726U 99025ETT 25195.73788153  .00017210  00000-0  21399-2 0  9992
2 38726  99.1486 196.1892 0030754 256.9555 102.8220 14.82295142676065
Source of the keplerian elements: AFSPC